| time (UTC) | temp C | wind direction | speed KPH | gust KPH | rain 1hr cm | rain 24hr cm | rain mn cm | humidity % | barometer mb |
| 20260504151021 | 21 | 199 | 3.2 | 6.4 | 0.00 | 0.03 | 0.03 | 59 | 1008.3 |
| 20260504141037 | 20 | 201 | 4.8 | 8.0 | 0.00 | 0.03 | 0.03 | 66 | 1008.3 |
| 20260504081017 | 15 | 178 | 4.8 | 8.0 | 0.00 | 0.03 | 0.03 | 74 | 1009.4 |
| 20260504050018 | 17 | 218 | 4.8 | 11.3 | 0.00 | 0.00 | 0.00 | 61 | 1008.6 |
| 20260504045020 | 17 | 215 | 4.8 | 11.3 | 0.00 | 0.00 | 0.00 | 62 | 1008.7 |
| 20260504044021 | 16 | 197 | 6.4 | 17.7 | 0.00 | 0.00 | 0.00 | 64 | 1009.3 |
| 20260504043020 | 16 | 200 | 1.6 | 4.8 | 0.00 | 0.00 | 0.00 | 63 | 1009.4 |
| 20260504042018 | 16 | 204 | 3.2 | 6.4 | 0.00 | 0.00 | 0.00 | 64 | 1009.5 |
| 20260504041039 | 16 | 199 | 3.2 | 4.8 | 0.00 | 0.00 | 0.00 | 64 | 1009.8 |
| 20260504040039 | 16 | 202 | 4.8 | 6.4 | 0.00 | 0.00 | 0.00 | 63 | 1009.8 |
| 20260504035018 | 16 | 199 | 4.8 | 6.4 | 0.00 | 0.00 | 0.00 | 63 | 1009.8 |
| 20260504034018 | 17 | 201 | 4.8 | 6.4 | 0.00 | 0.00 | 0.00 | 62 | 1009.9 |
| 20260504033018 | 17 | 200 | 4.8 | 11.3 | 0.00 | 0.00 | 0.00 | 61 | 1009.9 |
| 20260504032019 | 17 | 203 | 4.8 | 8.0 | 0.00 | 0.00 | 0.00 | 61 | 1009.9 |
| 20260504031019 | 17 | 201 | 4.8 | 11.3 | 0.00 | 0.00 | 0.00 | 61 | 1009.8 |
| 20260504030019 | 17 | 203 | 6.4 | 9.7 | 0.00 | 0.00 | 0.00 | 61 | 1009.8 |
| 20260504025021 | 17 | 201 | 6.4 | 8.0 | 0.00 | 0.00 | 0.00 | 61 | 1009.8 |
| 20260504024102 | 17 | 203 | 4.8 | 8.0 | 0.00 | 0.00 | 0.00 | 61 | 1010.0 |
| 20260504023021 | 17 | 202 | 4.8 | 6.4 | 0.00 | 0.00 | 0.00 | 60 | 1010.0 |
| 20260504022021 | 17 | 207 | 4.8 | 9.7 | 0.00 | 0.00 | 0.00 | 59 | 1009.9 |
| 20260504021017 | 18 | 205 | 4.8 | 8.0 | 0.00 | 0.00 | 0.00 | 58 | 1009.7 |
| 20260504020018 | 18 | 205 | 4.8 | 9.7 | 0.00 | 0.00 | 0.00 | 57 | 1009.8 |
| 20260504015020 | 18 | 204 | 6.4 | 9.7 | 0.00 | 0.00 | 0.00 | 56 | 1009.5 |
| 20260504014020 | 18 | 204 | 6.4 | 11.3 | 0.00 | 0.00 | 0.00 | 56 | 1009.5 |
| 20260504013038 | 18 | 201 | 6.4 | 9.7 | 0.00 | 0.00 | 0.00 | 55 | 1009.6 |
| 20260504012018 | 18 | 202 | 6.4 | 12.9 | 0.00 | 0.00 | 0.00 | 55 | 1009.5 |
| 20260504011018 | 19 | 198 | 6.4 | 9.7 | 0.00 | 0.00 | 0.00 | 53 | 1009.5 |
| 20260504010018 | 20 | 197 | 4.8 | 6.4 | 0.00 | 0.00 | 0.00 | 51 | 1009.5 |
| 20260504005018 | 20 | 203 | 4.8 | 9.7 | 0.00 | 0.00 | 0.00 | 49 | 1009.5 |
| 20260504004019 | 20 | 209 | 4.8 | 8.0 | 0.00 | 0.00 | 0.00 | 49 | 1009.5 |
| 20260504003019 | 20 | 211 | 4.8 | 9.7 | 0.00 | 0.00 | 0.00 | 49 | 1009.6 |
| 20260504002019 | 20 | 213 | 4.8 | 8.0 | 0.00 | 0.00 | 0.00 | 48 | 1009.6 |
| 20260504001019 | 21 | 205 | 4.8 | 9.7 | 0.00 | 0.00 | 0.00 | 48 | 1009.5 |
| 20260504000020 | 21 | 197 | 6.4 | 17.7 | 0.00 | 0.00 | 0.00 | 47 | 1009.7 |
| 20260503235021 | 21 | 193 | 6.4 | 14.5 | 0.00 | 0.00 | 0.00 | 46 | 1009.8 |
| 20260503234018 | 22 | 190 | 9.7 | 14.5 | 0.00 | 0.00 | 0.00 | 44 | 1010.0 |
| 20260503233041 | 22 | 190 | 8.0 | 14.5 | 0.00 | 0.00 | 0.00 | 44 | 1010.0 |
| 20260503232020 | 22 | 196 | 6.4 | 12.9 | 0.00 | 0.00 | 0.00 | 43 | 1010.0 |
| 20260503231020 | 22 | 195 | 6.4 | 12.9 | 0.00 | 0.00 | 0.00 | 43 | 1010.0 |
| 20260503230037 | 22 | 198 | 6.4 | 11.3 | 0.00 | 0.00 | 0.00 | 42 | 1010.2 |
| 20260503225018 | 22 | 198 | 4.8 | 11.3 | 0.00 | 0.00 | 0.00 | 42 | 1010.3 |
| 20260503224019 | 22 | 202 | 4.8 | 14.5 | 0.00 | 0.00 | 0.00 | 42 | 1010.4 |
| 20260503223021 | 22 | 207 | 4.8 | 9.7 | 0.00 | 0.00 | 0.00 | 42 | 1010.4 |
| 20260503222021 | 22 | 207 | 4.8 | 9.7 | 0.00 | 0.00 | 0.00 | 43 | 1010.4 |
| 20260503221018 | 22 | 197 | 6.4 | 11.3 | 0.00 | 0.00 | 0.00 | 43 | 1010.6 |
| 20260503220018 | 22 | 191 | 8.0 | 16.1 | 0.00 | 0.00 | 0.00 | 42 | 1010.5 |
| 20260503215019 | 22 | 199 | 8.0 | 12.9 | 0.00 | 0.00 | 0.00 | 43 | 1010.6 |
| 20260503214019 | 22 | 193 | 6.4 | 14.5 | 0.00 | 0.00 | 0.00 | 43 | 1010.7 |
| 20260503213040 | 21 | 182 | 9.7 | 19.3 | 0.00 | 0.00 | 0.00 | 43 | 1010.8 |
| 20260503212039 | 21 | 183 | 11.3 | 19.3 | 0.00 | 0.00 | 0.00 | 43 | 1010.9 |
| 20260503211019 | 21 | 184 | 11.3 | 19.3 | 0.00 | 0.00 | 0.00 | 43 | 1011.2 |
| 20260503210019 | 21 | 180 | 12.9 | 27.4 | 0.00 | 0.00 | 0.00 | 44 | 1011.3 |
| 20260503205020 | 21 | 185 | 11.3 | 17.7 | 0.00 | 0.00 | 0.00 | 45 | 1011.7 |
| 20260503204017 | 21 | 206 | 8.0 | 14.5 | 0.00 | 0.00 | 0.00 | 45 | 1011.9 |
| 20260503203018 | 21 | 207 | 8.0 | 19.3 | 0.00 | 0.00 | 0.00 | 44 | 1012.0 |
| 20260503202021 | 20 | 199 | 6.4 | 12.9 | 0.00 | 0.00 | 0.00 | 45 | 1012.1 |
| 20260503201040 | 20 | 200 | 8.0 | 16.1 | 0.00 | 0.00 | 0.00 | 47 | 1012.5 |
| 20260503200017 | 20 | 200 | 8.0 | 12.9 | 0.00 | 0.00 | 0.00 | 46 | 1012.8 |
| 20260503195018 | 20 | 204 | 8.0 | 16.1 | 0.00 | 0.00 | 0.00 | 45 | 1013.1 |
| 20260503194018 | 20 | 203 | 8.0 | 16.1 | 0.00 | 0.00 | 0.00 | 46 | 1013.4 |
| 20260503193021 | 20 | 206 | 6.4 | 19.3 | 0.00 | 0.00 | 0.00 | 48 | 1013.7 |
| 20260503192018 | 20 | 198 | 8.0 | 20.9 | 0.00 | 0.00 | 0.00 | 48 | 1013.9 |
| 20260503191018 | 19 | 206 | 6.4 | 14.5 | 0.00 | 0.00 | 0.00 | 48 | 1014.2 |
| 20260503190019 | 19 | 203 | 6.4 | 12.9 | 0.00 | 0.00 | 0.00 | 49 | 1014.4 |
| 20260503185020 | 18 | 212 | 8.0 | 16.1 | 0.00 | 0.00 | 0.00 | 49 | 1014.7 |
| 20260503184020 | 18 | 204 | 9.7 | 14.5 | 0.00 | 0.00 | 0.00 | 49 | 1015.1 |
| 20260503183017 | 18 | 201 | 6.4 | 12.9 | 0.00 | 0.00 | 0.00 | 50 | 1015.3 |
| 20260503182019 | 18 | 201 | 9.7 | 14.5 | 0.00 | 0.00 | 0.00 | 49 | 1015.5 |
| 20260503181020 | 18 | 213 | 8.0 | 14.5 | 0.00 | 0.00 | 0.00 | 49 | 1015.8 |
| 20260503180020 | 18 | 200 | 8.0 | 16.1 | 0.00 | 0.00 | 0.00 | 50 | 1015.9 |
| 20260503175018 | 18 | 204 | 6.4 | 14.5 | 0.00 | 0.00 | 0.00 | 49 | 1016.4 |
| 20260503174018 | 17 | 213 | 4.8 | 9.7 | 0.00 | 0.00 | 0.00 | 52 | 1016.6 |
| 20260503173038 | 17 | 214 | 8.0 | 14.5 | 0.00 | 0.00 | 0.00 | 49 | 1016.9 |
| 20260503172038 | 17 | 207 | 6.4 | 12.9 | 0.00 | 0.00 | 0.00 | 51 | 1017.1 |
| 20260503171021 | 17 | 207 | 6.4 | 14.5 | 0.00 | 0.00 | 0.00 | 51 | 1017.3 |